Location: Lalanga
(4.5882°N, 32.9072°E)
Time: 04:34:37
(UTC+00:00)

Cosmos 1371 Rocket - Pass Details

Date: 24 January 2020
Orbit: 753 x 790 km, 74.0° (Epoch: 16 February)

Event Time Altitude Azimuth Distance (km) Brightness Sun altitude
Rises 16:27:57 0° 186° (S) 3,206 7.6 -8.0°
Reaches altitude 10° 16:30:20 10° 183° (S) 2,277 6.7 -8.6°
Maximum altitude 16:35:26 63° 102° (ESE) 838 4.0 -9.8°
Drops below altitude 10° 16:40:30 10° 21° (NNE) 2,268 6.1 -11.0°
Sets 16:42:53 0° 18° (NNE) 3,192 6.9 -11.5°
